Previsão horária em Allmend

Hoje, 18 Janeiro, Segunda-feira

Tempo Temperatura Precipitação Vento Pressão Humidade
00:00 -2°C° 0.1 mm 1 m/s 694 mmHg 96%
01:00 -2°C° 0 mm 1 m/s 694 mmHg 96%
02:00 -3°C° 0.1 mm 1 m/s 694 mmHg 95%
03:00 -3°C° 0.1 mm 1 m/s 694 mmHg 95%
04:00 -3°C° 0.1 mm 1 m/s 694 mmHg 94%
05:00 -3°C° 0.1 mm 1 m/s 694 mmHg 94%
06:00 -3°C° 0.1 mm 1 m/s 694 mmHg 95%
07:00 -4°C° 0.1 mm 1 m/s 694 mmHg 95%
08:00 -3°C° 0 mm 1 m/s 695 mmHg 94%
09:00 -2°C° 0 mm 1 m/s 695 mmHg 92%
10:00 -1°C° 0 mm 1 m/s 695 mmHg 91%
11:00 -1°C° 0 mm 1 m/s 695 mmHg 90%
12:00 0°C° 0 mm 1 m/s 695 mmHg 89%
13:00 +1°C° 0 mm 1 m/s 695 mmHg 88%
14:00 +1°C° 0 mm 1 m/s 694 mmHg 90%
15:00 0°C° 0 mm 0 m/s 694 mmHg 92%
16:00 -1°C° 0 mm 0 m/s 694 mmHg 93%
17:00 -2°C° 0 mm 0 m/s 694 mmHg 91%
18:00 -2°C° 0 mm 1 m/s 694 mmHg 89%
19:00 -4°C° 0 mm 1 m/s 694 mmHg 87%
20:00 -4°C° 0 mm 1 m/s 694 mmHg 85%
21:00 -4°C° 0 mm 1 m/s 694 mmHg 83%
22:00 -3°C° 0 mm 1 m/s 694 mmHg 80%
23:00 -4°C° 0 mm 1 m/s 694 mmHg 79%

Amanhã, 19 Janeiro, Terça-feira

Tempo Temperatura Precipitação Vento Pressão Humidade
00:00 -4°C° 0 mm 1 m/s 693 mmHg 77%
01:00 -4°C° 0 mm 1 m/s 693 mmHg 76%
02:00 -3°C° 0 mm 1 m/s 693 mmHg 75%
03:00 -3°C° 0 mm 1 m/s 692 mmHg 75%
04:00 -3°C° 0 mm 1 m/s 692 mmHg 74%
05:00 -3°C° 0 mm 1 m/s 692 mmHg 73%
06:00 -5°C° 0 mm 2 m/s 692 mmHg 73%
07:00 -5°C° 0 mm 2 m/s 691 mmHg 72%
08:00 -4°C° 0 mm 2 m/s 691 mmHg 73%
09:00 0°C° 0 mm 1 m/s 691 mmHg 73%
10:00 +1°C° 0 mm 1 m/s 691 mmHg 74%
11:00 +2°C° 0 mm 1 m/s 691 mmHg 78%
12:00 +3°C° 0 mm 1 m/s 691 mmHg 81%
13:00 +4°C° 0 mm 1 m/s 691 mmHg 85%
14:00 +4°C° 0 mm 1 m/s 690 mmHg 83%
15:00 +4°C° 0 mm 1 m/s 690 mmHg 82%
16:00 +4°C° 0 mm 1 m/s 689 mmHg 80%
17:00 +2°C° 0 mm 1 m/s 689 mmHg 78%
18:00 -1°C° 0 mm 2 m/s 689 mmHg 75%
19:00 -2°C° 0 mm 2 m/s 689 mmHg 72%
20:00 -2°C° 0 mm 2 m/s 689 mmHg 71%
21:00 -2°C° 0 mm 2 m/s 689 mmHg 70%
22:00 -2°C° 0 mm 2 m/s 688 mmHg 69%
23:00 -3°C° 0 mm 2 m/s 688 mmHg 68%

Depois de amanhã, 20 Janeiro, Quarta-feira

Tempo Temperatura Precipitação Vento Pressão Humidade
00:00 -3°C° 0 mm 2 m/s 688 mmHg 68%
01:00 -3°C° 0 mm 2 m/s 688 mmHg 67%
02:00 -3°C° 0 mm 2 m/s 688 mmHg 67%
03:00 -3°C° 0 mm 2 m/s 687 mmHg 67%
04:00 -3°C° 0 mm 2 m/s 687 mmHg 67%
05:00 -3°C° 0 mm 2 m/s 687 mmHg 67%
06:00 -3°C° 0 mm 2 m/s 686 mmHg 67%
07:00 -3°C° 0 mm 2 m/s 686 mmHg 67%
08:00 -2°C° 0 mm 2 m/s 686 mmHg 69%
09:00 -1°C° 0 mm 2 m/s 686 mmHg 71%
10:00 +1°C° 0 mm 2 m/s 686 mmHg 72%
11:00 +1°C° 0 mm 2 m/s 686 mmHg 76%
12:00 +2°C° 0 mm 2 m/s 685 mmHg 80%
13:00 +3°C° 0 mm 2 m/s 685 mmHg 84%
14:00 +3°C° 0 mm 2 m/s 684 mmHg 83%
15:00 +2°C° 0 mm 2 m/s 684 mmHg 83%
16:00 +1°C° 0 mm 2 m/s 683 mmHg 82%
17:00 -1°C° 0 mm 2 m/s 683 mmHg 81%
18:00 -2°C° 0 mm 3 m/s 683 mmHg 80%
19:00 -4°C° 0 mm 3 m/s 683 mmHg 79%
20:00 -4°C° 0 mm 3 m/s 683 mmHg 79%
21:00 -2°C° 0 mm 3 m/s 683 mmHg 79%
22:00 -2°C° 0 mm 2 m/s 682 mmHg 80%
23:00 -2°C° 0 mm 2 m/s 682 mmHg 80%

21 Janeiro, Quinta-feira

Tempo Temperatura Precipitação Vento Pressão Humidade
00:00 -3°C° 0 mm 2 m/s 682 mmHg 80%
01:00 -4°C° 0 mm 3 m/s 682 mmHg 80%
02:00 -2°C° 0 mm 2 m/s 682 mmHg 80%
03:00 -2°C° 0 mm 2 m/s 682 mmHg 80%
04:00 -1°C° 0 mm 2 m/s 682 mmHg 80%
05:00 -2°C° 0 mm 2 m/s 681 mmHg 81%
06:00 -2°C° 0 mm 2 m/s 681 mmHg 81%
07:00 -2°C° 0 mm 2 m/s 681 mmHg 81%
08:00 -1°C° 0 mm 2 m/s 681 mmHg 80%
09:00 +1°C° 0 mm 2 m/s 681 mmHg 80%
10:00 +2°C° 0 mm 2 m/s 681 mmHg 79%
11:00 +3°C° 0 mm 2 m/s 681 mmHg 81%
12:00 +4°C° 0 mm 2 m/s 681 mmHg 83%
13:00 +6°C° 0 mm 1 m/s 681 mmHg 84%
14:00 +5°C° 0 mm 1 m/s 680 mmHg 85%
15:00 +5°C° 0 mm 1 m/s 680 mmHg 85%
16:00 +4°C° 0 mm 1 m/s 679 mmHg 86%
17:00 +2°C° 0 mm 2 m/s 679 mmHg 84%
18:00 +2°C° 0 mm 2 m/s 679 mmHg 83%
19:00 +1°C° 0 mm 2 m/s 678 mmHg 82%
20:00 +1°C° 0 mm 2 m/s 678 mmHg 81%
21:00 +1°C° 0 mm 2 m/s 678 mmHg 81%
22:00 +1°C° 0 mm 2 m/s 677 mmHg 81%
23:00 +1°C° 0 mm 2 m/s 677 mmHg 82%

22 Janeiro, Sexta-feira

Tempo Temperatura Precipitação Vento Pressão Humidade
00:00 +1°C° 0 mm 2 m/s 676 mmHg 82%
01:00 +1°C° 0 mm 2 m/s 676 mmHg 83%
02:00 +1°C° 0.1 mm 2 m/s 675 mmHg 85%
03:00 +1°C° 0.1 mm 2 m/s 675 mmHg 87%
04:00 +1°C° 0.1 mm 2 m/s 674 mmHg 89%
05:00 -1°C° 0 mm 2 m/s 674 mmHg 87%
06:00 -1°C° 0 mm 2 m/s 674 mmHg 84%
07:00 -1°C° 0 mm 2 m/s 674 mmHg 82%
08:00 +1°C° 0.2 mm 2 m/s 674 mmHg 84%
09:00 +1°C° 0.2 mm 2 m/s 674 mmHg 86%
10:00 +2°C° 0.2 mm 2 m/s 675 mmHg 87%
11:00 +2°C° 1.8 mm 2 m/s 675 mmHg 89%
12:00 0°C° 1.8 mm 3 m/s 676 mmHg 90%
13:00 0°C° 1.8 mm 3 m/s 676 mmHg 91%
14:00 0°C° 0.1 mm 3 m/s 676 mmHg 90%
15:00 +1°C° 0.1 mm 2 m/s 676 mmHg 89%
16:00 +1°C° 0.1 mm 2 m/s 676 mmHg 88%
17:00 -1°C° 0 mm 2 m/s 677 mmHg 87%
18:00 -2°C° 0 mm 2 m/s 677 mmHg 85%
19:00 -3°C° 0 mm 2 m/s 677 mmHg 84%
20:00 -4°C° 0 mm 2 m/s 677 mmHg 83%
21:00 -4°C° 0 mm 2 m/s 677 mmHg 82%
22:00 -4°C° 0 mm 2 m/s 678 mmHg 82%
23:00 -4°C° 0.4 mm 2 m/s 678 mmHg 85%

23 Janeiro, Sábado

Tempo Temperatura Precipitação Vento Pressão Humidade
00:00 -4°C° 0.4 mm 3 m/s 678 mmHg 89%
01:00 -4°C° 0.4 mm 3 m/s 678 mmHg 93%
02:00 -4°C° 0.2 mm 3 m/s 678 mmHg 93%
03:00 -4°C° 0.2 mm 3 m/s 678 mmHg 92%
04:00 -3°C° 0.2 mm 2 m/s 679 mmHg 92%
05:00 -3°C° 0.3 mm 2 m/s 679 mmHg 92%
06:00 -3°C° 0.3 mm 2 m/s 679 mmHg 93%
07:00 -3°C° 0.3 mm 2 m/s 679 mmHg 93%
08:00 -3°C° 0 mm 2 m/s 679 mmHg 90%
09:00 -2°C° 0 mm 2 m/s 678 mmHg 87%
10:00 0°C° 0 mm 1 m/s 678 mmHg 83%
11:00 +1°C° 0 mm 1 m/s 678 mmHg 83%
12:00 +2°C° 0 mm 1 m/s 677 mmHg 82%
13:00 +3°C° 0 mm 1 m/s 676 mmHg 82%
14:00 +2°C° 0.1 mm 1 m/s 676 mmHg 85%
15:00 +2°C° 0.1 mm 1 m/s 675 mmHg 89%
16:00 +1°C° 0.1 mm 1 m/s 675 mmHg 92%
17:00 +1°C° 0.7 mm 1 m/s 675 mmHg 93%
18:00 -2°C° 0.7 mm 2 m/s 676 mmHg 93%
19:00 -2°C° 0.7 mm 2 m/s 676 mmHg 94%
20:00 -2°C° 1.2 mm 3 m/s 677 mmHg 94%
21:00 -2°C° 1.2 mm 3 m/s 678 mmHg 95%
22:00 -3°C° 1.2 mm 4 m/s 678 mmHg 95%
23:00 -3°C° 0.3 mm 4 m/s 679 mmHg 95%
Mostrar mais

Necessitamos do seu Consentimento

A Meteoprog e os seus Fornecedores de Serviços podem armazenar e aceder a dados pessoais como cookies, identificadores do dispositivo ou outras tecnologias semelhantes existentes no seu dispositivo e processar estes dados para personalizar conteúdos e anúncios, assim como funcionalidades nas redes sociais e análise de tráfego.

  • Armazenar e/ou aceder a informações no seu dispositivo

    Os cookies, identificadores do dispositivo ou outras informações podem ser armazenados ou acedidos no seu dispositivo, para os fins acima indicados.

  • Anúncios e conteúdos personalizados, medição de anúncios e conteúdos, dados sobre o público-alvo e desenvolvimento de produtos

    Os anúncios e os conteúdos podem ser personalizados com base num perfil. Podem ser adicionados dados adicionais para uma maior personalização dos anúncios e dos conteúdos. A eficácia dos anúncios e dos conteúdos pode ser medida. Podem ser obtidas informações sobre o público que visualizou os anúncios e os conteúdos. Estes dados podem ser usados para desenvolver ou melhorar sistemas, softwares ou a experiência do utilizador.

Ao clicar em "Eu concordo”, permitirá o uso de cookies, identificadores do dispositivo e web beacons mencionados ou outras tecnologias semelhantes. As configurações do navegador do seu dispositivo podem ser alteradas.

Para certos fins, podem ser invocados interesses legítimos ao invés de consentimento. Pode ler mais informação sobre este assunto na nossa Política de Privacidade e Cookies.